User: anonymous   Login
Location: Unspecified
(0.0000°N, 0.0000°E)
Time: 19:10:07
(UTC+00:00)
Language:

PICO-01B009 - Orbit

View from above orbital plane
View from above orbital plane
View from above satellite
View from above satellite

Ground track
Ground track

The orbit is defined by the following mean orbital elements,

1 58287U          26144.84874255 +.00000000 +00000-0 +98986-3 0 00006
2 58287  97.3778 240.1117 0004627 196.4700 163.6416 15.75235146    01
Epoch (UTC): 24 May 2026 20:22:11
Eccentricity: 0.0004627
inclination: 97.3778°
perigee height: 341 km
apogee height: 347 km
right ascension of ascending node: 240.1117°
argument of perigee: 196.4700°
revolutions per day: 15.75235146
mean anomaly at epoch: 163.6416°

The dashed part of the orbit path shows where the satellite is in the earth's shadow,  

DLR